Location: Copenhagen
(55.6670°N, 12.5830°E)
Time: 05:24:45
(UTC+02:00)

ACS3 Solar Sail - Pass Details

Date: 24 September 2024
Orbit: 959 x 1034 km, 97.5° (Epoch: 14 October)

Event Time Altitude Azimuth Distance (km) Brightness Sun altitude
Exits shadow 21:32:33 10° 182° (S) 2,833 3.9 -21.0°
Reaches altitude 10° 21:32:35 10° 182° (S) 2,826 3.9 -21.0°
Maximum altitude 21:38:54 59° 261° (W) 1,190 2.4 -21.8°
Drops below altitude 10° 21:45:15 10° 341° (NNW) 2,842 5.0 -22.5°
Enters shadow 22:53:33 -49° 185° (S) 10,817 7.1 -29.4°
